Location: Unspecified
(52.4292°N, 19.3359°E)
Time: 00:02:20
(UTC+02:00)

SR - Pass Details

Date: 30 May 2024
Orbit: 580 x 858 km, 66.7° (Epoch: 12 June)

Event Time Altitude Azimuth Distance (km) Brightness Sun altitude
Rises 22:27:39 0° 318° (NW) 2,941 ? -10.2°
Reaches altitude 10° 22:30:35 10° 337° (NNW) 1,987 ? -10.4°
Maximum altitude 22:33:46 19° 23° (NNE) 1,456 ? -10.7°
Drops below altitude 10° 22:36:51 10° 69° (ENE) 1,919 ? -10.9°
Sets 22:39:37 0° 88° (E) 2,803 ? -11.1°
